SKY142 RJFU-RJBE

Flight info

Callsign SKY142
Flight time 0h 47m
Altitude 31000
Route OOITA Y351 SALTY Y35 URDET Y353 AVKUL
Aircraft B738/M-SDE2E3FGHIRWXY/LB1

Departure

Time 2026-05-06 02:28
Airport Nagasaki Airport (RJFU)

Arrival

Time 2026-05-06 03:15
Airport Kobe Airport (RJBE)
Time Latitude Longitude Altitude Speed Heading
2026-05-06 02:02 32.91299 129.92272 12 ft 0 kts 47°
2026-05-06 02:21 32.91298 129.92270 12 ft 2 kts 47°
2026-05-06 02:21 32.91287 129.92256 11 ft 2 kts 47°
2026-05-06 02:21 32.91276 129.92241 8 ft 2 kts 47°
2026-05-06 02:22 32.91265 129.92227 -4 ft 2 kts 47°
2026-05-06 02:22 32.91253 129.92212 11 ft 2 kts 47°
2026-05-06 02:22 32.91242 129.92198 10 ft 2 kts 47°
2026-05-06 02:22 32.91233 129.92186 10 ft 0 kts 47°
2026-05-06 02:25 32.91233 129.92188 9 ft 1 kts 68°
2026-05-06 02:25 32.91226 129.92192 11 ft 2 kts 173°
2026-05-06 02:25 32.91201 129.92182 9 ft 4 kts 198°
2026-05-06 02:26 32.91158 129.92196 10 ft 12 kts 146°
2026-05-06 02:26 32.91073 129.92283 8 ft 20 kts 139°
2026-05-06 02:26 32.90958 129.92406 10 ft 23 kts 139°
2026-05-06 02:26 32.90841 129.92523 11 ft 20 kts 155°
2026-05-06 02:27 32.90731 129.92448 15 ft 19 kts 232°
2026-05-06 02:27 32.90762 129.92340 15 ft 19 kts 317°
2026-05-06 02:27 32.91101 129.91978 12 ft 110 kts 318°
2026-05-06 02:27 32.91853 129.91178 226 ft 168 kts 319°
2026-05-06 02:28 32.92802 129.90206 1046 ft 192 kts 320°
2026-05-06 02:28 32.93875 129.89093 1865 ft 216 kts 317°
2026-05-06 02:28 32.95022 129.87822 2653 ft 234 kts 317°
2026-05-06 02:28 32.96255 129.86471 3419 ft 247 kts 316°
2026-05-06 02:29 32.97558 129.85066 4165 ft 252 kts 317°
2026-05-06 02:29 32.98843 129.83691 4880 ft 250 kts 316°
2026-05-06 02:29 33.00144 129.82307 5596 ft 251 kts 317°
2026-05-06 02:29 33.01678 129.81290 6315 ft 258 kts 346°
2026-05-06 02:30 33.03468 129.81396 7060 ft 263 kts 20°
2026-05-06 02:30 33.04974 129.82622 7813 ft 265 kts 46°
2026-05-06 02:30 33.06207 129.84233 8568 ft 267 kts 48°
2026-05-06 02:30 33.07442 129.85906 9343 ft 270 kts 49°
2026-05-06 02:31 33.08690 129.87595 10105 ft 272 kts 48°
2026-05-06 02:31 33.09957 129.89289 10800 ft 276 kts 47°
2026-05-06 02:31 33.11259 129.91018 11403 ft 284 kts 47°
2026-05-06 02:31 33.12599 129.92790 12034 ft 290 kts 47°
2026-05-06 02:32 33.13955 129.94615 12664 ft 297 kts 52°
2026-05-06 02:32 33.14813 129.96871 13283 ft 305 kts 81°
2026-05-06 02:32 33.14845 129.98545 13726 ft 307 kts 101°
2026-05-06 02:32 33.14107 130.00920 14354 ft 308 kts 123°
2026-05-06 02:33 33.12919 130.03054 14957 ft 312 kts 127°
2026-05-06 02:33 33.11667 130.05193 15563 ft 316 kts 127°
2026-05-06 02:34 33.07879 130.11821 17128 ft 340 kts 127°
2026-05-06 02:34 33.06506 130.14253 17144 ft 364 kts 127°
2026-05-06 02:34 33.05057 130.16824 17136 ft 378 kts 127°
2026-05-06 02:34 33.03591 130.19427 17098 ft 377 kts 127°
2026-05-06 02:35 33.02136 130.22009 17095 ft 375 kts 127°
2026-05-06 02:35 33.00686 130.24579 17263 ft 372 kts 127°
2026-05-06 02:35 32.99248 130.27138 17798 ft 374 kts 124°
2026-05-06 02:35 32.98267 130.30042 18408 ft 384 kts 102°
2026-05-06 02:36 32.98212 130.33192 18979 ft 391 kts 82°
2026-05-06 02:36 32.98750 130.36428 19482 ft 397 kts 79°
2026-05-06 02:36 32.99353 130.39612 19941 ft 402 kts 78°
2026-05-06 02:36 32.99983 130.42885 20421 ft 408 kts 78°
2026-05-06 02:37 33.00607 130.46208 20921 ft 413 kts 79°
2026-05-06 02:37 33.01224 130.49577 21397 ft 418 kts 79°
2026-05-06 02:37 33.01833 130.52976 21900 ft 422 kts 80°
2026-05-06 02:37 33.02443 130.56413 22414 ft 426 kts 80°
2026-05-06 02:38 33.03057 130.59889 22940 ft 429 kts 80°
2026-05-06 02:38 33.03665 130.63338 23463 ft 432 kts 80°
2026-05-06 02:38 33.04285 130.66858 23936 ft 435 kts 81°
2026-05-06 02:38 33.04908 130.70407 24368 ft 438 kts 81°
2026-05-06 02:39 33.05532 130.73972 24820 ft 440 kts 81°
2026-05-06 02:39 33.06158 130.77554 25272 ft 442 kts 82°
2026-05-06 02:39 33.06787 130.81153 25770 ft 443 kts 82°
2026-05-06 02:39 33.07417 130.84772 26127 ft 448 kts 82°
2026-05-06 02:40 33.08051 130.88424 26493 ft 451 kts 83°
2026-05-06 02:40 33.08695 130.92115 26841 ft 456 kts 83°
2026-05-06 02:40 33.09332 130.95781 27208 ft 459 kts 84°
2026-05-06 02:40 33.09980 130.99534 27569 ft 462 kts 84°
2026-05-06 02:41 33.10630 131.03305 27971 ft 465 kts 84°
2026-05-06 02:41 33.11284 131.07102 28335 ft 469 kts 85°
2026-05-06 02:41 33.11939 131.10916 28733 ft 471 kts 85°
2026-05-06 02:41 33.12598 131.14755 29101 ft 473 kts 85°
2026-05-06 02:42 33.13261 131.18621 29501 ft 475 kts 85°
2026-05-06 02:42 33.13923 131.22488 29913 ft 475 kts 86°
2026-05-06 02:42 33.14584 131.26350 30305 ft 476 kts 86°
2026-05-06 02:42 33.15247 131.30230 30672 ft 477 kts 86°
2026-05-06 02:43 33.15908 131.34111 30989 ft 477 kts 86°
2026-05-06 02:43 33.16569 131.37995 31156 ft 481 kts 86°
2026-05-06 02:43 33.17234 131.41949 31135 ft 488 kts 86°
2026-05-06 02:44 33.18581 131.49966 31145 ft 504 kts 86°
2026-05-06 02:44 33.19985 131.58299 31145 ft 519 kts 85°
2026-05-06 02:45 33.21427 131.66881 31156 ft 532 kts 85°
2026-05-06 02:45 33.22419 131.71194 31129 ft 548 kts 71°
2026-05-06 02:45 33.24286 131.75222 31188 ft 557 kts 60°
2026-05-06 02:46 33.28521 131.83011 31166 ft 566 kts 58°
2026-05-06 02:46 33.32838 131.90954 31159 ft 572 kts 59°
2026-05-06 02:47 33.37102 131.99027 31114 ft 572 kts 60°
2026-05-06 02:47 33.41273 132.07036 31149 ft 566 kts 60°
2026-05-06 02:48 33.45444 132.15074 31167 ft 571 kts 60°
2026-05-06 02:48 33.49655 132.23185 31162 ft 571 kts 60°
2026-05-06 02:49 33.53838 132.31244 31155 ft 568 kts 60°
2026-05-06 02:49 33.57956 132.39200 31158 ft 567 kts 60°
2026-05-06 02:50 33.62100 132.47226 31158 ft 567 kts 60°
2026-05-06 02:50 33.66275 132.55333 31166 ft 572 kts 60°
2026-05-06 02:51 33.70454 132.63464 31173 ft 569 kts 60°
2026-05-06 02:51 33.74564 132.71472 31156 ft 558 kts 60°
2026-05-06 02:51 33.76604 132.75457 30928 ft 561 kts 60°
2026-05-06 02:52 33.78647 132.79458 30420 ft 562 kts 60°
2026-05-06 02:52 33.80669 132.83418 29934 ft 561 kts 60°
2026-05-06 02:52 33.82718 132.87430 29438 ft 562 kts 59°
2026-05-06 02:52 33.84654 132.91445 28918 ft 561 kts 65°
2026-05-06 02:53 33.86218 132.95743 28377 ft 557 kts 75°
2026-05-06 02:53 33.87231 133.00198 27854 ft 548 kts 80°
2026-05-06 02:53 33.88175 133.04628 27371 ft 541 kts 79°
2026-05-06 02:53 33.89143 133.08996 26880 ft 539 kts 78°
2026-05-06 02:54 33.90134 133.13342 26428 ft 536 kts 77°
2026-05-06 02:54 33.91120 133.17600 25959 ft 534 kts 77°
2026-05-06 02:54 33.92119 133.21891 25506 ft 530 kts 77°
2026-05-06 02:54 33.93111 133.26159 25008 ft 526 kts 77°
2026-05-06 02:55 33.94089 133.30391 24549 ft 522 kts 76°
2026-05-06 02:55 33.95061 133.34613 24100 ft 518 kts 76°
2026-05-06 02:55 33.96016 133.38777 23658 ft 513 kts 76°
2026-05-06 02:55 33.96949 133.42823 23147 ft 505 kts 75°
2026-05-06 02:56 33.98173 133.46758 22592 ft 500 kts 65°
2026-05-06 02:56 33.99854 133.50383 22086 ft 492 kts 56°
2026-05-06 02:56 34.01873 133.53669 21572 ft 483 kts 47°
2026-05-06 02:56 34.04185 133.56570 21087 ft 475 kts 43°
2026-05-06 02:57 34.06504 133.59371 20594 ft 468 kts 43°
2026-05-06 02:57 34.08788 133.62129 20131 ft 462 kts 44°
2026-05-06 02:57 34.11032 133.64862 19688 ft 454 kts 44°
2026-05-06 02:57 34.13231 133.67563 19267 ft 448 kts 44°
2026-05-06 02:58 34.15394 133.70237 18856 ft 441 kts 44°
2026-05-06 02:58 34.17519 133.72875 18452 ft 435 kts 44°
2026-05-06 02:58 34.19608 133.75474 18068 ft 428 kts 45°
2026-05-06 02:58 34.21666 133.78037 17667 ft 422 kts 45°
2026-05-06 02:59 34.23703 133.80573 17286 ft 419 kts 45°
2026-05-06 02:59 34.25739 133.83108 16912 ft 421 kts 45°
2026-05-06 02:59 34.27789 133.85667 16564 ft 424 kts 45°
2026-05-06 02:59 34.29811 133.88243 16164 ft 420 kts 45°
2026-05-06 03:00 34.31844 133.90755 15795 ft 414 kts 45°
2026-05-06 03:00 34.33819 133.93198 15433 ft 408 kts 45°
2026-05-06 03:00 34.35791 133.95649 15031 ft 403 kts 44°
2026-05-06 03:00 34.37917 133.97845 14702 ft 400 kts 34°
2026-05-06 03:01 34.40319 133.99481 14356 ft 398 kts 22°
2026-05-06 03:01 34.42848 134.00787 14017 ft 395 kts 21°
2026-05-06 03:01 34.45367 134.02078 13623 ft 392 kts 21°
2026-05-06 03:01 34.47865 134.03414 13225 ft 390 kts 23°
2026-05-06 03:02 34.50283 134.04871 12827 ft 388 kts 32°
2026-05-06 03:02 34.52199 134.07096 12444 ft 387 kts 54°
2026-05-06 03:02 34.53438 134.09971 12075 ft 384 kts 73°
2026-05-06 03:02 34.54107 134.13080 11733 ft 381 kts 77°
2026-05-06 03:03 34.54705 134.16205 11358 ft 379 kts 78°
2026-05-06 03:03 34.55291 134.19324 11000 ft 377 kts 78°
2026-05-06 03:03 34.55874 134.22402 10878 ft 370 kts 78°
2026-05-06 03:03 34.56456 134.25440 10922 ft 371 kts 78°
2026-05-06 03:04 34.57046 134.28483 10947 ft 371 kts 78°
2026-05-06 03:04 34.57646 134.31556 10958 ft 375 kts 77°
2026-05-06 03:04 34.58244 134.34607 10955 ft 375 kts 77°
2026-05-06 03:04 34.58849 134.37692 10949 ft 375 kts 77°
2026-05-06 03:05 34.59454 134.40774 10948 ft 374 kts 77°
2026-05-06 03:05 34.60056 134.43846 10949 ft 374 kts 77°
2026-05-06 03:05 34.60656 134.46911 10959 ft 373 kts 77°
2026-05-06 03:05 34.61254 134.49968 10949 ft 369 kts 77°
2026-05-06 03:06 34.61841 134.52976 10594 ft 360 kts 77°
2026-05-06 03:06 34.62409 134.55886 10117 ft 349 kts 78°
2026-05-06 03:06 34.62960 134.58719 9597 ft 340 kts 78°
2026-05-06 03:06 34.63489 134.61442 9085 ft 332 kts 78°
2026-05-06 03:07 34.64014 134.64146 8580 ft 325 kts 78°
2026-05-06 03:07 34.64528 134.66797 8079 ft 320 kts 78°
2026-05-06 03:07 34.65033 134.69405 7592 ft 315 kts 78°
2026-05-06 03:07 34.65530 134.71972 7109 ft 310 kts 78°
2026-05-06 03:08 34.66020 134.74512 6638 ft 307 kts 78°
2026-05-06 03:08 34.66178 134.77051 6104 ft 300 kts 102°
2026-05-06 03:08 34.65660 134.79446 5640 ft 293 kts 109°
2026-05-06 03:08 34.65058 134.81798 5143 ft 291 kts 109°
2026-05-06 03:09 34.64459 134.84134 4633 ft 288 kts 109°
2026-05-06 03:09 34.63870 134.86449 4131 ft 285 kts 109°
2026-05-06 03:09 34.63292 134.88748 3632 ft 282 kts 109°
2026-05-06 03:09 34.62725 134.91017 3155 ft 279 kts 109°
2026-05-06 03:10 34.62178 134.93218 2998 ft 263 kts 109°
2026-05-06 03:10 34.61665 134.95279 2953 ft 248 kts 109°
2026-05-06 03:10 34.61221 134.97250 2949 ft 242 kts 99°
2026-05-06 03:10 34.61387 134.99212 2967 ft 226 kts 78°
2026-05-06 03:11 34.61655 135.01015 2989 ft 207 kts 87°
2026-05-06 03:11 34.61771 135.02664 2948 ft 190 kts 88°
2026-05-06 03:11 34.61883 135.04287 2772 ft 196 kts 86°
2026-05-06 03:11 34.62004 135.05917 2486 ft 192 kts 87°
2026-05-06 03:12 34.62125 135.07504 2228 ft 185 kts 87°
2026-05-06 03:12 34.62243 135.09051 1983 ft 184 kts 86°
2026-05-06 03:12 34.62360 135.10590 1751 ft 181 kts 87°
2026-05-06 03:12 34.62473 135.12057 1516 ft 166 kts 86°
2026-05-06 03:13 34.62576 135.13391 1289 ft 154 kts 86°
2026-05-06 03:13 34.62673 135.14660 1072 ft 150 kts 85°
2026-05-06 03:13 34.62771 135.15932 888 ft 152 kts 84°
2026-05-06 03:13 34.62868 135.17199 687 ft 148 kts 85°
2026-05-06 03:14 34.62961 135.18405 544 ft 133 kts 87°
2026-05-06 03:14 34.63044 135.19519 355 ft 134 kts 87°
2026-05-06 03:14 34.63124 135.20630 154 ft 132 kts 86°
2026-05-06 03:14 34.63217 135.21713 26 ft 119 kts 86°
2026-05-06 03:15 34.63274 135.22447 29 ft 56 kts 84°
2026-05-06 03:15 34.63337 135.22649 29 ft 16 kts 13°
2026-05-06 03:15 34.63440 135.22663 31 ft 14 kts 33°
2026-05-06 03:15 34.63463 135.22729 31 ft 7 kts 84°
2026-05-06 03:16 34.63468 135.22787 31 ft 8 kts 84°
2026-05-06 03:16 34.63473 135.22864 31 ft 11 kts 85°
2026-05-06 03:16 34.63474 135.22871 31 ft 11 kts 84°
2026-05-06 03:17 34.63485 135.22924 29 ft 7 kts 49°
2026-05-06 03:17 34.63521 135.22935 31 ft 5 kts
2026-05-06 03:17 34.63548 135.22913 31 ft 6 kts 287°
2026-05-06 03:17 34.63574 135.22871 30 ft 7 kts 337°
2026-05-06 03:18 34.63606 135.22864 30 ft 0 kts 354°
2026-05-06 03:18 34.63610 135.22863 31 ft 2 kts 354°
2026-05-06 03:18 34.63611 135.22863 31 ft 0 kts 354°